Weather History for Antwerp, Belgium

Change the Weather History Date:

Saturday, November 10, 2012

  Actual Average Record
Temperature  
Mean Temperature 50 °F -  
Max Temperature 54 °F 46 °F 60 °F (2008)
Min Temperature 46 °F 37 °F 26 °F (2001)
Degree Days  
Heating Degree Days 15    
Moisture  
Dew Point 48 °F    
Average Humidity 91    
Maximum Humidity 100    
Minimum Humidity 82    
Precipitation  
Precipitation 0.04 in - - ()
Sea Level Pressure  
Sea Level Pressure 29.53 in    
Wind  
Wind Speed 6 mph ()    
Max Wind Speed 13 mph    
Max Gust Speed 24 mph    
Visibility 5.5 miles    
Events Rain    
Averages and records for this station are not official NWS values.
T = Trace of Precipitation, MM = Missing Value Source: Averaged Metar Reports

Daily Weather History Graph

Daily Weather History Graph

Search for Another Location

Airport:

Trip Planner

Search our weather history database for the weather conditions in past years. The results will help you decide how hot, cold, wet, or windy it might be!

Date:

Astronomy

Nov. 10, 2012 Rise Set
Actual Time 7:51 AM CET 5:00 PM CET
Civil Twilight 7:14 AM CET 5:36 PM CET
Nautical Twilight 6:34 AM CET 6:16 PM CET
Astronomical Twilight 5:56 AM CET 6:55 PM CET
Moon 3:13 AM CET (11/10) 2:59 PM CET (11/10)
Length of Visible Light 10h 21m
Length of Day
9h 09m
Waning Crescent, 16% of the Moon is Illuminated
Nov 10
Waning Crescent
Nov 13
New
Nov 20
First Quarter
Nov 28
Full
Dec 6
Last Quarter

Hourly Weather History & Observations

Time (CET) Temp. Windchill Dew Point Humidity Pressure Visibility Wind Dir Wind Speed Gust Speed Precip Events Conditions
12:20 AM 46.4 °F 43.5 °F 44.6 °F 93% 29.71 in 6.2 mi South 5.8 mph - N/A   Overcast
12:50 AM 46.4 °F 44.3 °F 46.4 °F 100% 29.68 in 6.2 mi South 4.6 mph - N/A   Overcast
1:00 AM 47 °F - 46 °F 93% 29.70 in 6 mi South 4.5 mph - -   Clear
1:20 AM 48.2 °F - 46.4 °F 93% 29.68 in 5.0 mi South 6.9 mph - N/A   Overcast
1:50 AM 48.2 °F - 46.4 °F 93% 29.68 in 6.2 mi South 8.1 mph - N/A   Overcast
2:20 AM 48.2 °F - 46.4 °F 93% 29.65 in 6.2 mi South 6.9 mph - N/A   Overcast
2:50 AM 50.0 °F - 46.4 °F 87% 29.65 in 5.6 mi South 6.9 mph - N/A   Overcast
3:20 AM 50.0 °F - 48.2 °F 94% 29.62 in 5.6 mi South 6.9 mph - N/A   Overcast
3:50 AM 50.0 °F - 48.2 °F 94% 29.62 in 5.6 mi SSE 5.8 mph - N/A   Overcast
4:00 AM 50 °F - 48 °F 89% 29.63 in - SSE 4.5 mph - -   Overcast
4:20 AM 50.0 °F - 48.2 °F 94% 29.62 in 5.6 mi South 4.6 mph - N/A   Overcast
4:50 AM 50.0 °F - 48.2 °F 94% 29.59 in 4.3 mi SSE 5.8 mph - N/A   Overcast
5:20 AM 50.0 °F - 48.2 °F 94% 29.59 in - SSE 6.9 mph - N/A Rain Light Rain Showers
5:50 AM 48.2 °F - 48.2 °F 100% 29.56 in 3.7 mi SSE 6.9 mph - N/A   Overcast
6:20 AM 50.0 °F - 48.2 °F 94% 29.59 in 4.3 mi South 5.8 mph - N/A   Overcast
6:50 AM 50.0 °F - 48.2 °F 94% 29.56 in 5.6 mi South 5.8 mph - N/A   Mostly Cloudy
7:00 AM 50 °F - 49 °F 94% 29.58 in 6 mi South 6.7 mph - -   Partly Cloudy
7:20 AM 50.0 °F - 48.2 °F 94% 29.56 in 5.6 mi South 5.8 mph - N/A   Mostly Cloudy
7:50 AM 50.0 °F - 48.2 °F 94% 29.56 in 6.2 mi South 6.9 mph - N/A   Mostly Cloudy
8:20 AM 50.0 °F - 48.2 °F 94% 29.56 in 6.2 mi South 6.9 mph - N/A   Overcast
8:50 AM 50.0 °F - 50.0 °F 100% 29.56 in 5.0 mi South 5.8 mph - N/A Rain Light Rain
9:20 AM 50.0 °F - 50.0 °F 100% 29.56 in 3.1 mi South 6.9 mph - N/A Rain Light Rain
9:50 AM 50.0 °F - 50.0 °F 100% 29.56 in 3.1 mi South 6.9 mph - N/A Rain Light Rain
10:00 AM 51 °F - 50 °F 95% 29.56 in 3 mi South 6.7 mph - - Rain Light Rain
10:20 AM 51.8 °F - 50.0 °F 94% 29.53 in 3.1 mi SSE 6.9 mph - N/A   Mostly Cloudy
10:50 AM 51.8 °F - 50.0 °F 94% 29.53 in 4.3 mi SSE 5.8 mph - N/A   Mostly Cloudy
11:20 AM 51.8 °F - 50.0 °F 94% 29.53 in 3.7 mi South 6.9 mph - N/A   Mostly Cloudy
11:50 AM 51.8 °F - 50.0 °F 94% 29.53 in 5.0 mi South 9.2 mph - N/A   Mostly Cloudy
12:20 PM 53.6 °F - 50.0 °F 88% 29.50 in 3.7 mi SSW 9.2 mph - N/A   Mostly Cloudy
12:50 PM 53.6 °F - 50.0 °F 88% 29.50 in 5.0 mi South 8.1 mph - N/A   Mostly Cloudy
1:00 PM 53 °F - 50 °F 87% 29.52 in 5 mi South 8.9 mph - -   Partly Cloudy
1:20 PM 53.6 °F - 50.0 °F 88% 29.50 in 2.8 mi South 8.1 mph - N/A   Mostly Cloudy
1:50 PM 53.6 °F - 50.0 °F 88% 29.50 in 6.2 mi South 9.2 mph - N/A   Mostly Cloudy
2:20 PM 53.6 °F - 50.0 °F 88% 29.47 in 6.2 mi South 8.1 mph - N/A   Mostly Cloudy
2:50 PM 53.6 °F - 50.0 °F 88% 29.47 in 6.2 mi South 8.1 mph - N/A   Mostly Cloudy
3:20 PM 53.6 °F - 50.0 °F 88% 29.44 in 6.2 mi South 6.9 mph - N/A   Mostly Cloudy
3:50 PM 53.6 °F - 50.0 °F 88% 29.47 in 6.2 mi SSE 5.8 mph - N/A   Mostly Cloudy
4:00 PM 54 °F - 50 °F 82% 29.47 in 7 mi SSE 4.5 mph - -   Partly Cloudy
4:20 PM 53.6 °F - 50.0 °F 88% 29.47 in 6.2 mi SSE 5.8 mph - N/A   Partly Cloudy
4:50 PM 53.6 °F - 50.0 °F 88% 29.44 in 6.2 mi SSE 5.8 mph - N/A   Partly Cloudy
5:20 PM 51.8 °F - 48.2 °F 88% 29.44 in - SSE 6.9 mph - N/A   Clear
5:50 PM 51.8 °F - 48.2 °F 88% 29.44 in 6.2 mi South 5.8 mph - N/A   Partly Cloudy
6:20 PM 51.8 °F - 48.2 °F 88% 29.44 in 6.2 mi South 5.8 mph - N/A   Partly Cloudy
6:50 PM 51.8 °F - 48.2 °F 88% 29.44 in 6.2 mi SSE 6.9 mph - N/A   Partly Cloudy
7:00 PM 51 °F - 48 °F 86% 29.47 in 11 mi SSE 6.7 mph - -   Mostly Cloudy
7:20 PM 51.8 °F - 48.2 °F 88% 29.44 in - SSE 6.9 mph - N/A   Clear
7:50 PM 51.8 °F - 48.2 °F 88% 29.44 in - SSE 8.1 mph - N/A   Clear
8:20 PM 51.8 °F - 48.2 °F 88% 29.44 in - SSE 6.9 mph - N/A   Clear
8:50 PM 51.8 °F - 48.2 °F 88% 29.44 in 6.2 mi SSE 8.1 mph - N/A   Scattered Clouds
9:20 PM 51.8 °F - 48.2 °F 88% 29.44 in 6.2 mi SSE 5.8 mph - N/A   Mostly Cloudy
9:50 PM 51.8 °F - 48.2 °F 88% 29.44 in 5.6 mi South 5.8 mph - N/A Rain Light Rain
10:00 PM 52 °F - 49 °F 85% 29.46 in 6 mi South 6.7 mph - - Rain Light Rain
10:20 PM 50.0 °F - 46.4 °F 87% 29.47 in 6.2 mi WSW 9.2 mph 24.2 mph N/A   Mostly Cloudy
10:50 PM 48.2 °F - 46.4 °F 93% 29.50 in 6.2 mi West 12.7 mph - N/A Rain Light Rain
11:20 PM 48.2 °F - 46.4 °F 93% 29.53 in 6.2 mi West 10.4 mph - N/A   Overcast
11:50 PM 48.2 °F - 46.4 °F 93% 29.56 in 6.2 mi WSW 8.1 mph - N/A Rain Light Rain Showers